Bolton Field, OH

5:44 AM EDT on June 23, 2017 (GMT -0400)
Bolton

Weather History for KTZR - October, 2012

Change the Weather History Date:

Sunday, October 7, 2012

  Actual Average Record
Temperature  
Mean Temperature 44 °F -  
Max Temperature 48 °F 68 °F 89 °F (2007)
Min Temperature 41 °F 47 °F 33 °F (2001)
Degree Days  
Heating Degree Days 20    
Moisture  
Dew Point 35 °F    
Average Humidity 72    
Maximum Humidity 83    
Minimum Humidity 58    
Precipitation  
Precipitation 0.00 in - - ()
Sea Level Pressure  
Sea Level Pressure 30.13 in    
Wind  
Wind Speed 4 mph (WNW)    
Max Wind Speed 8 mph    
Max Gust Speed -    
Visibility 10 miles    
Events Rain    
Averages and records for this station are not official NWS values.
T = Trace of Precipitation, MM = Missing Value Source: NWS Daily Summary

Daily Weather History Graph

Daily Weather History Graph

Search for Another Location

Airport or City:

Trip Planner

Search our weather history database for the weather conditions in past years. The results will help you decide how hot, cold, wet, or windy it might be!

Date:

Astronomy

Oct. 07, 2012 Rise Set
Actual Time 7:35 AM EDT 7:04 PM EDT
Civil Twilight 7:08 AM EDT 7:31 PM EDT
Nautical Twilight 6:36 AM EDT 8:02 PM EDT
Astronomical Twilight 6:05 AM EDT 8:34 PM EDT
Moon No Moon Rise 2:11 PM EDT (10/7)
Length of Visible Light 12h 23m
Length of Day
11h 29m
Waning Gibbous, 56% of the Moon is Illuminated
Oct 7
Waning Gibbous
Oct 8
Last Quarter
Oct 15
New
Oct 21
First Quarter
Oct 29
Full

Hourly Weather History & Observations

Time (EDT) Temp. Windchill Dew Point Humidity Pressure Visibility Wind Dir Wind Speed Gust Speed Precip Events Conditions
12:15 AM 45.7 °F 42.7 °F 32.7 °F 61% 30.14 in 10.0 mi NNW 5.8 mph - N/A   Mostly Cloudy
12:35 AM 45.5 °F 42.5 °F 32.9 °F 61% 30.13 in 10.0 mi NNW 5.8 mph - N/A   Overcast
12:55 AM 45.3 °F 43.0 °F 33.3 °F 63% 30.13 in 10.0 mi NW 4.6 mph - N/A   Overcast
1:15 AM 45.1 °F 42.8 °F 33.3 °F 63% 30.13 in 10.0 mi NNW 4.6 mph - N/A   Overcast
1:35 AM 44.8 °F 42.4 °F 33.3 °F 64% 30.12 in 10.0 mi NNW 4.6 mph - N/A   Overcast
1:55 AM 44.6 °F 42.2 °F 34.2 °F 67% 30.12 in 10.0 mi NW 4.6 mph - N/A   Overcast
2:15 AM 44.6 °F 41.4 °F 34.9 °F 69% 30.11 in 10.0 mi NNW 5.8 mph - N/A   Overcast
2:35 AM 44.6 °F 41.4 °F 35.1 °F 69% 30.12 in 10.0 mi NNW 5.8 mph - N/A   Overcast
2:55 AM 44.4 °F 40.5 °F 34.9 °F 69% 30.11 in 10.0 mi NNW 6.9 mph - N/A   Overcast
3:15 AM 44.1 °F 40.1 °F 35.2 °F 71% 30.10 in 10.0 mi North 6.9 mph - N/A   Overcast
3:35 AM 43.7 °F 42.1 °F 35.4 °F 73% 30.11 in 10.0 mi NW 3.5 mph - N/A   Overcast
3:55 AM 43.3 °F 41.7 °F 35.6 °F 74% 30.12 in 10.0 mi WNW 3.5 mph - N/A   Overcast
4:15 AM 43.2 °F - 35.8 °F 75% 30.11 in 10.0 mi Calm Calm - N/A   Overcast
4:35 AM 43.2 °F 41.5 °F 35.8 °F 75% 30.11 in 10.0 mi NW 3.5 mph - N/A   Overcast
4:55 AM 43.2 °F - 36.1 °F 76% 30.10 in 10.0 mi Calm Calm - N/A   Overcast
5:15 AM 43.3 °F 41.7 °F 35.6 °F 74% 30.10 in 10.0 mi NNW 3.5 mph - N/A   Overcast
5:35 AM 43.7 °F - 35.6 °F 73% 30.10 in 10.0 mi Calm Calm - N/A   Overcast
5:55 AM 42.8 °F 41.1 °F 36.5 °F 78% 30.10 in 10.0 mi WNW 3.5 mph - N/A   Overcast
6:15 AM 42.8 °F 40.1 °F 36.5 °F 78% 30.10 in 10.0 mi WNW 4.6 mph - N/A   Overcast
6:35 AM 42.8 °F 40.1 °F 36.0 °F 77% 30.11 in 10.0 mi WNW 4.6 mph - N/A   Overcast
6:55 AM 42.8 °F 40.1 °F 36.1 °F 77% 30.11 in 10.0 mi WNW 4.6 mph - N/A   Overcast
7:15 AM 42.8 °F 41.1 °F 36.0 °F 77% 30.11 in 10.0 mi NW 3.5 mph - N/A   Overcast
7:23 AM 42.8 °F 41.1 °F 35.6 °F 76% 30.11 in 10.0 mi NW 3.5 mph - N/A   Overcast
7:35 AM 42.4 °F 40.7 °F 36.7 °F 80% 30.11 in 10.0 mi WNW 3.5 mph - N/A   Overcast
7:50 AM 42.8 °F 41.1 °F 37.4 °F 81% 30.11 in 10.0 mi NW 3.5 mph - N/A   Overcast
7:55 AM 42.3 °F - 37.0 °F 82% 30.11 in 10.0 mi Calm Calm - N/A   Overcast
8:15 AM 42.3 °F - 37.4 °F 83% 30.12 in 10.0 mi Calm Calm - N/A   Overcast
8:50 AM 42.8 °F - 37.4 °F 81% 30.12 in 10.0 mi Calm Calm - N/A   Overcast
9:57 AM 42.8 °F 41.1 °F 37.4 °F 81% 30.14 in 10.0 mi West 3.5 mph - N/A   Overcast
10:50 AM 44.6 °F - 35.6 °F 71% 30.14 in 10.0 mi Calm Calm - N/A   Overcast
11:50 AM 46.4 °F 42.9 °F 37.4 °F 71% 30.15 in 10.0 mi WNW 6.9 mph - N/A   Overcast
12:50 PM 46.4 °F - 35.6 °F 66% 30.15 in 10.0 mi Calm Calm - N/A   Overcast
1:50 PM 46.4 °F 43.5 °F 37.4 °F 71% 30.15 in 7.0 mi West 5.8 mph - N/A Rain Light Rain
2:50 PM 44.6 °F 40.2 °F 37.4 °F 76% 30.15 in 7.0 mi West 8.1 mph - N/A Rain Light Rain
3:50 PM 48.2 °F - 35.6 °F 62% 30.14 in 10.0 mi West 3.5 mph - N/A   Scattered Clouds
4:55 PM 48.2 °F - 33.8 °F 58% 30.13 in 10.0 mi WSW 5.8 mph - N/A   Overcast
5:55 PM 48.2 °F - 33.8 °F 58% 30.15 in 10.0 mi WSW 5.8 mph - N/A   Overcast
9:15 PM 45.3 °F 44.0 °F 35.8 °F 69% 30.18 in 10.0 mi WSW 3.5 mph - N/A   Overcast
9:35 PM 45.1 °F - 36.0 °F 70% 30.18 in 10.0 mi Calm Calm - N/A   Overcast
9:55 PM 45.5 °F 44.2 °F 35.4 °F 68% 30.18 in 10.0 mi WSW 3.5 mph - N/A   Overcast
10:15 PM 44.6 °F 43.1 °F 36.1 °F 72% 30.19 in 10.0 mi WSW 3.5 mph - N/A   Overcast
10:35 PM 44.1 °F 42.5 °F 35.6 °F 72% 30.18 in 10.0 mi West 3.5 mph - N/A   Overcast
10:55 PM 43.3 °F 41.7 °F 34.9 °F 72% 30.19 in 10.0 mi WSW 3.5 mph - N/A   Overcast
11:15 PM 43.9 °F 42.3 °F 33.8 °F 68% 30.19 in 10.0 mi West 3.5 mph - N/A   Overcast
11:35 PM 41.0 °F 38.0 °F 33.6 °F 75% 30.19 in 10.0 mi WSW 4.6 mph - N/A   Overcast
11:55 PM 42.8 °F 41.1 °F 33.4 °F 70% 30.19 in 10.0 mi West 3.5 mph - N/A   Mostly Cloudy